User: anonymous   Login
Location: Unspecified
(0.0000°N, 0.0000°E)
Time: 09:31:26
(UTC+00:00)
Language:

EGRS 7 - Orbit

View from above orbital plane
View from above orbital plane
View from above satellite
View from above satellite

Ground track
Ground track

The orbit data is extracted from the following two-line orbital elements,

1 02411U 66077B   17293.82442068 -.00000024  00000-0 -12640-1 0  9992
2 02411  90.1939 246.0132 0026308 347.8521  12.1694  8.59618551606113
Epoch (UTC): 20 October 2017 19:47:09
Eccentricity: 0.0026308
inclination: 90.1939°
perigee height: 3661 km
apogee height: 3714 km
right ascension of ascending node: 246.0132°
argument of perigee: 347.8521°
revolutions per day: 8.59618551
mean anomaly at epoch: 12.1694°
orbit number at epoch: 60611

The dashed part of the orbit path shows where the satellite is in the earth's shadow,  

DLR